Flag for China Weather past 2 weeks in Nanning, Guangxi, China

Now
77 °F

Sprinkles. Broken clouds.


Feels Like: 78 °F
Forecast: 75 / 82 °F
Wind: 8 mph from Southeast

Location: Nanning Airport

Current Time: Jul 28, 2015 at 2:34:05 PM

Latest Report: Jul 28, 2015 at 2:00 PM


Visibility: N/A

Pressure: 29.74 "Hg

Humidity: 94%

Dew point: 75 °F

Location of NanningLocation

Historic Weather in Nanning — Graph

°F

Nanning temperature yesterday

Maximum temperature yesterday: 82 °F (at 4:00 PM)
Minimum temperature yesterday: 75 °F (at 8:00 AM)
Average temperature yesterday: 78 °F

Past Weeks' High & Low Weather Summary

 TemperatureHumidityPressure
High97 °F (Jul 13, 1:00 PM)100% (Jul 18, 1:00 AM)29.77 "Hg (Jul 18, 1:00 AM)
Low75 °F (Jul 23, 1:00 PM)47% (Jul 14, 3:00 PM)29.47 "Hg (Jul 14, 5:00 PM)
Average83 °F82%29.63 "Hg
* Reported Jul 13 1:00 PM — Jul 28 1:00 PM, Nanning, Weather by CustomWeather, © 2015

Note: Actual official high and low records may vary slightly from our data, if they occured in-between our weather recording intervals... More about our weather records

Advertising

Nanning weather history for previous 24 hours

 ConditionsComfort  
Time TempWeatherWind HumidityBarometerVisibility
1:00 PM
Tue, Jul 28
77 °FSprinkles. Broken clouds.8 mph94%29.77 "HgN/A
12:00 PM77 °FSprinkles. Broken clouds.3 mph94%29.77 "Hg6 mi
11:00 AM75 °FSprinkles. Broken clouds.3 mph94%29.77 "Hg4 mi
10:00 AM75 °FSprinkles. Broken clouds.3 mph94%29.77 "Hg4 mi
9:00 AM75 °FSprinkles. Fog.6 mph94%29.74 "Hg3 mi
8:00 AM75 °FSprinkles. Broken clouds.6 mph94%29.74 "HgN/A
7:00 AM75 °FSprinkles. Broken clouds.1 mph94%29.71 "HgN/A
6:00 AM75 °FSprinkles. Partly cloudy.3 mph94%29.71 "Hg4 mi
5:00 AM75 °FSprinkles. Partly cloudy.6 mph100%29.71 "Hg3 mi
4:00 AM77 °FSprinkles. Partly cloudy.6 mph94%29.71 "HgN/A
3:00 AM77 °FPassing clouds.6 mph94%29.71 "HgN/A
2:00 AM77 °FPassing clouds.3 mph94%29.74 "HgN/A
1:00 AM77 °FPassing clouds.3 mph94%29.74 "HgN/A
12:00 AM77 °FPassing clouds.3 mph94%29.77 "HgN/A
11:00 PM
Mon, Jul 27
77 °FPassing clouds.3 mph89%29.77 "HgN/A
10:00 PM77 °FPassing clouds.3 mph94%29.74 "HgN/A
9:00 PM77 °FPassing clouds.3 mph89%29.74 "HgN/A
8:00 PM77 °FPassing clouds.3 mph89%29.71 "HgN/A
7:00 PM77 °FScattered clouds.6 mph94%29.68 "HgN/A
6:00 PM79 °FScattered clouds.8 mph89%29.68 "HgN/A
5:00 PM81 °FSprinkles. Scattered clouds.6 mph89%29.65 "HgN/A
4:00 PM82 °FScattered clouds.6 mph79%29.65 "HgN/A
3:00 PM81 °FBroken clouds.6 mph84%29.68 "HgN/A
2:00 PM79 °FBroken clouds.6 mph89%29.68 "HgN/A
Weather by CustomWeather, © 2015

See weather overviewHow to use our weather pages